Moriarty, NM

3:45 AM MST on February 25, 2017 (GMT -0700)
Moriarty

Weather History for K0E0 - December, 2012

Change the Weather History Date:

Saturday, December 8, 2012

  Actual Average (KABQ) Record (KABQ)
Temperature  
Mean Temperature 35 °F -  
Max Temperature 55 °F 49 °F 68 °F (1977)
Min Temperature 15 °F 26 °F 5 °F (1916)
Degree Days  
Heating Degree Days 30    
Moisture  
Dew Point 17 °F    
Average Humidity 48    
Maximum Humidity 83    
Minimum Humidity 21    
Precipitation  
Precipitation 0.00 in - - ()
Sea Level Pressure  
Sea Level Pressure 29.92 in    
Wind  
Wind Speed 7 mph (West)    
Max Wind Speed 30 mph    
Max Gust Speed 39 mph    
Visibility 10 miles    
Events      
Averages and records for this station are not official NWS values.
T = Trace of Precipitation, MM = Missing Value Source: NWS Daily Summary

Daily Weather History Graph

Daily Weather History Graph

Search for Another Location

Airport or City:

Trip Planner

Search our weather history database for the weather conditions in past years. The results will help you decide how hot, cold, wet, or windy it might be!

Date:

Astronomy

Dec. 08, 2012 Rise Set
Actual Time 6:59 AM MST 4:52 PM MST
Civil Twilight 6:31 AM MST 5:20 PM MST
Nautical Twilight 6:00 AM MST 5:51 PM MST
Astronomical Twilight 5:29 AM MST 6:22 PM MST
Moon 1:37 AM MST (12/8) 1:15 PM MST (12/8)
Length of Visible Light 10h 48m
Length of Day
9h 52m
Waning Crescent, 27% of the Moon is Illuminated
Dec 8
Waning Crescent
Dec 13
New
Dec 19
First Quarter
Dec 28
Full
Jan 4
Last Quarter

Hourly Weather History & Observations

Time (MST) Temp. Windchill Dew Point Humidity Pressure Visibility Wind Dir Wind Speed Gust Speed Precip Events Conditions
12:15 AM 26.2 °F 20.7 °F 16.9 °F 68% 29.98 in 10.0 mi SE 4.6 mph - N/A   Clear
12:35 AM 27.7 °F - 18.5 °F 68% 29.98 in 10.0 mi Calm Calm - N/A   Clear
12:55 AM 23.7 °F - 15.6 °F 71% 29.98 in 10.0 mi Calm Calm - N/A   Clear
1:15 AM 27.0 °F 21.6 °F 19.2 °F 73% 29.98 in 10.0 mi South 4.6 mph - N/A   Clear
1:35 AM 23.9 °F - 16.2 °F 72% 29.97 in 10.0 mi Calm Calm - N/A   Clear
1:55 AM 21.9 °F 17.2 °F 14.4 °F 73% 29.97 in 10.0 mi South 3.5 mph - N/A   Clear
2:15 AM 19.0 °F - 11.3 °F 72% 29.97 in 10.0 mi Calm Calm - N/A   Clear
2:35 AM 25.3 °F - 19.4 °F 78% 29.97 in 10.0 mi Calm Calm - N/A   Clear
2:55 AM 19.6 °F - 14.4 °F 80% 29.97 in 10.0 mi Calm Calm - N/A   Clear
3:15 AM 20.3 °F - 12.7 °F 73% 29.96 in 10.0 mi Calm Calm - N/A   Clear
3:35 AM 24.4 °F - 19.2 °F 81% 29.96 in 10.0 mi Calm Calm - N/A   Clear
3:55 AM 23.7 °F 19.3 °F 16.7 °F 75% 29.96 in 10.0 mi SSW 3.5 mph - N/A   Clear
4:15 AM 20.8 °F - 14.0 °F 75% 29.96 in 10.0 mi Calm Calm - N/A   Clear
4:55 AM 18.3 °F 13.1 °F 13.8 °F 83% 29.96 in 10.0 mi NW 3.5 mph - N/A   Clear
5:15 AM 15.1 °F - 9.5 °F 79% 29.96 in 10.0 mi Calm Calm - N/A   Clear
5:35 AM 20.8 °F - 15.8 °F 81% 29.96 in 10.0 mi Calm Calm - N/A   Clear
5:55 AM 15.4 °F 9.8 °F 10.9 °F 82% 29.96 in 10.0 mi North 3.5 mph - N/A   Clear
6:15 AM 15.4 °F - 10.0 °F 79% 29.96 in 10.0 mi Calm Calm - N/A   Clear
6:35 AM 16.7 °F 9.6 °F 12.4 °F 83% 29.96 in 10.0 mi NNE 4.6 mph - N/A   Clear
6:55 AM 15.8 °F 7.2 °F 11.1 °F 82% 29.96 in 10.0 mi North 5.8 mph - N/A   Clear
7:15 AM 17.8 °F - 13.1 °F 82% 29.96 in 10.0 mi Calm Calm - N/A   Clear
7:35 AM 24.8 °F 19.1 °F 17.8 °F 75% 29.96 in 10.0 mi SW 4.6 mph - N/A   Clear
7:55 AM 28.9 °F 22.8 °F 20.7 °F 71% 29.97 in 10.0 mi West 5.8 mph - N/A   Clear
8:15 AM 39.4 °F 31.8 °F 25.7 °F 58% 29.96 in 10.0 mi West 12.7 mph - N/A   Clear
8:35 AM 41.7 °F 35.2 °F 25.7 °F 53% 29.96 in 10.0 mi West 11.5 mph - N/A   Clear
8:55 AM 43.5 °F 36.7 °F 25.7 °F 50% 29.97 in 10.0 mi West 13.8 mph - N/A   Clear
9:15 AM 45.5 °F 37.8 °F 25.3 °F 45% 29.97 in 10.0 mi West 19.6 mph - N/A   Clear
9:35 AM 47.3 °F - 25.5 °F 43% 29.97 in 10.0 mi WSW 15.0 mph - N/A   Clear
9:55 AM 49.1 °F - 24.4 °F 38% 29.97 in 10.0 mi West 20.7 mph 25.3 mph N/A   Clear
10:15 AM 50.4 °F - 23.9 °F 36% 29.97 in 10.0 mi West 18.4 mph 24.2 mph N/A   Clear
10:35 AM 51.8 °F - 23.7 °F 33% 29.96 in 10.0 mi West 15.0 mph 23.0 mph N/A   Clear
10:55 AM 52.2 °F - 23.5 °F 33% 29.96 in 10.0 mi WNW 19.6 mph - N/A   Clear
11:15 AM 52.9 °F - 23.2 °F 31% 29.95 in 10.0 mi West 16.1 mph 23.0 mph N/A   Clear
11:35 AM 53.4 °F - 23.4 °F 31% 29.93 in 10.0 mi WNW 17.3 mph 21.9 mph N/A   Clear
11:55 AM 53.6 °F - 23.0 °F 30% 29.92 in 10.0 mi West 19.6 mph 24.2 mph N/A   Clear
12:15 PM 53.6 °F - 23.0 °F 30% 29.90 in 10.0 mi West 18.4 mph 21.9 mph N/A   Clear
12:55 PM 53.8 °F - 23.4 °F 31% 29.88 in 10.0 mi WNW 18.4 mph 27.6 mph N/A   Clear
1:15 PM 54.5 °F - 23.0 °F 29% 29.87 in 10.0 mi West 20.7 mph 25.3 mph N/A   Clear
1:35 PM 54.9 °F - 21.6 °F 27% 29.86 in 10.0 mi West 18.4 mph 29.9 mph N/A   Clear
1:55 PM 55.4 °F - 19.6 °F 25% 29.86 in 7.0 mi West 26.5 mph 31.1 mph N/A   Clear
2:15 PM 52.5 °F - 19.4 °F 27% 29.85 in 10.0 mi West 25.3 mph 34.5 mph N/A   Clear
2:35 PM 55.4 °F - 21.4 °F 27% 29.84 in 10.0 mi West 26.5 mph 35.7 mph N/A   Clear
2:55 PM 55.2 °F - 21.2 °F 27% 29.84 in 10.0 mi West 29.9 mph 39.1 mph N/A   Clear
3:15 PM 55.0 °F - 21.4 °F 27% 29.84 in 10.0 mi West 26.5 mph 34.5 mph N/A   Clear
3:35 PM 55.4 °F - 20.8 °F 26% 29.85 in 10.0 mi West 23.0 mph - N/A   Clear
3:55 PM 55.2 °F - 16.0 °F 21% 29.85 in 10.0 mi West 21.9 mph 33.4 mph N/A   Clear
4:15 PM 54.3 °F - 16.0 °F 22% 29.86 in 10.0 mi West 16.1 mph 25.3 mph N/A   Clear
4:35 PM 52.7 °F - 16.3 °F 24% 29.87 in 10.0 mi West 13.8 mph - N/A   Clear
4:55 PM 49.6 °F - 16.3 °F 27% 29.87 in 10.0 mi WNW 8.1 mph - N/A   Clear
5:15 PM 46.9 °F - 16.5 °F 30% 29.88 in 10.0 mi NW 6.9 mph - N/A   Clear
5:35 PM 48.4 °F - 16.7 °F 28% 29.89 in 10.0 mi Calm Calm - N/A   Clear
5:55 PM 45.9 °F - 15.8 °F 30% 29.89 in 10.0 mi Calm Calm - N/A   Clear
6:15 PM 45.0 °F - 15.6 °F 31% 29.89 in 10.0 mi Calm Calm - N/A   Clear
6:55 PM 41.5 °F 37.8 °F 15.4 °F 35% 29.90 in 10.0 mi NW 5.8 mph - N/A   Clear
7:15 PM 40.3 °F 37.1 °F 15.1 °F 36% 29.90 in 10.0 mi NW 4.6 mph - N/A   Clear
7:35 PM 33.8 °F 30.8 °F 11.8 °F 40% 29.90 in 10.0 mi SSE 3.5 mph - N/A   Clear
7:55 PM 33.1 °F - 13.8 °F 45% 29.90 in 10.0 mi Calm Calm - N/A   Clear
8:15 PM 31.8 °F - 12.4 °F 45% 29.91 in 10.0 mi Calm Calm - N/A   Clear
8:35 PM 32.2 °F 23.8 °F 12.4 °F 44% 29.90 in 10.0 mi SW 10.4 mph - N/A   Clear
8:55 PM 36.9 °F 28.2 °F 13.1 °F 38% 29.90 in 10.0 mi SW 13.8 mph - N/A   Clear
9:15 PM 37.0 °F 27.7 °F 12.9 °F 37% 29.90 in 10.0 mi WSW 16.1 mph - N/A   Clear
9:35 PM 40.8 °F 33.3 °F 12.2 °F 31% 29.90 in 10.0 mi WSW 13.8 mph - N/A   Clear
9:55 PM 37.6 °F 30.0 °F 11.3 °F 34% 29.91 in 10.0 mi West 11.5 mph - N/A   Clear
10:15 PM 37.2 °F 30.0 °F 11.1 °F 34% 29.91 in 10.0 mi West 10.4 mph - N/A   Clear
10:35 PM 37.6 °F 29.6 °F 10.9 °F 33% 29.91 in 10.0 mi West 12.7 mph - N/A   Clear
10:55 PM 38.7 °F 31.8 °F 10.9 °F 32% 29.92 in 10.0 mi WSW 10.4 mph - N/A   Clear
11:15 PM 35.6 °F 28.0 °F 10.2 °F 35% 29.92 in 10.0 mi West 10.4 mph - N/A   Clear
11:35 PM 40.1 °F 33.6 °F 10.4 °F 30% 29.92 in 10.0 mi West 10.4 mph - N/A   Clear
11:55 PM 36.9 °F 29.6 °F 10.2 °F 33% 29.91 in 10.0 mi WNW 10.4 mph - N/A   Clear